sat.trackr.live / text

‹ back to catalog

STARLINK-30844

NORAD 58403 · 2023-180B

PAYLOAD ACTIVE UNKNOWN

§ Identity

Operator
Country
US
Launch date
2023-11-22
Launch site
AFETR
Launch vehicle
Mass (kg)
RCS (m²)

Purposes: comms

External: N2YO · Heavens-Above · Gunter

§ Orbital elements

Epoch: 2026-05-24T22:29:41.017056Z

Period
94.27 min
Inclination
43.0046°
Eccentricity
0.0001546
Mean motion
15.27582782 rev/d
Perigee alt
482.0 km
Apogee alt
484.1 km
Semi-major
6,861.2 km
B*
-5.9257e-5
RAAN
342.2458°
Arg perigee
261.5899°
Mean anomaly
98.4778°
Rev number
13,916

§ Raw data

STARLINK-308441 58403U 23180B   26144.93728029 -.00001893  00000+0 -59257-4 0  99952 58403  43.0046 342.2458 0001546 261.5899  98.4778 15.27582782139163

JSON: /api/v1/satellites/58403 · /tle

For live sub-satellite position, see the globe view (requires WebGL).

§ Visibility from observer

Set your observer location to see the next 7 days of passes ≥ 10°. The values pass through the URL so the page stays shareable.

No JS? Fill the form by hand. The geolocation button needs JavaScript.